Notices

What's New in latest Release from April 7th, 2021:

- Updated Glossary, including Speed of Maximum Gust, and Total Hourly Precipitation

- Updated national and regional climate services offices contacts and prices information

- Addition of station inventory lists for 1981-2010, 1971-2000, and 1961-1990 Normals.

If you haven't already, please take our survey and provide feedback about our website: https://eccc.sondage-survey.ca/f/LanguageSelection.aspx?s=442ca660-fcf1-47c0-95a9-59707d6fd709

Hourly Data Report for March 25, 2020

MIRAMICHI RCS
NEW BRUNSWICK
Current Station Operator: ECCC - MSC

47°00'34.000" N
65°27'54.000" W
33.00 m
8100989
71744
ACQ

Download Data

Hourly Data (March 2020)
Hourly Data Report for March 25, 2020
TIME
LST
Temp Definition
°C
Dew Point Definition
°C
Rel Hum Definition
%
Precip. Amount Definition
mm

Wind Dir Definition
10's deg

Wind Spd Definition
km/h
Visibility Definition
km
Stn Press Definition
kPa
Hmdx Definition


Wind Chill Definition


Weather Definition


00:00 -7.0 -7.6 96 LegendMM 27 4   101.54   -9 LegendNANA
01:00 -7.1 -7.5 97 LegendMM 27 7   101.60   -11 LegendNANA
02:00 -6.5 -7.0 96 LegendMM 27 5   101.63   -9 LegendNANA
03:00 -7.5 -8.4 93 LegendMM 25 5   101.66   -10 LegendNANA
04:00 -7.3 -8.2 94 LegendMM 27 4   101.68   -9 LegendNANA
05:00 -8.9 -10.0 92 LegendMM 26 3   101.71   -11 LegendNANA
06:00 -10.1 -10.8 94 LegendMM 24 2   101.79   -11 LegendNANA
07:00 -11.9 -13.4 89 LegendMM 23 4   101.87   -14 LegendNANA
08:00 -6.4 -7.6 91 LegendMM 24 5   101.92   -9 LegendNANA
09:00 -3.5 -5.5 86 LegendMM 22 8   101.97   -7 LegendNANA
10:00 2.0 -4.4 62 LegendMM 21 1   102.00     LegendNANA
11:00 5.4 -2.8 55 LegendMM 11 2   102.05     LegendNANA
12:00 6.6 -5.1 43 LegendMM 11 4   102.08     LegendNANA
13:00 7.9 -5.4 38 LegendMM 11 4   102.05     LegendNANA
14:00 8.1 -7.4 33 LegendMM 8 5   101.97     LegendNANA
15:00 6.5 -7.9 35 LegendMM 9 11   101.91     LegendNANA
16:00 5.2 -5.5 46 LegendMM 9 14   101.89     LegendNANA
17:00 5.4 -7.9 38 LegendMM 12 18   101.94     LegendNANA
18:00 4.0 -7.5 43 LegendMM 13 17   101.92     LegendNANA
19:00 2.1 -7.3 50 LegendMM 12 11   101.92     LegendNANA
20:00 0.5 -7.7 54 LegendMM 14 9   101.94     LegendNANA
21:00 -0.9 -7.8 60 LegendMM 14 7   101.95   -3 LegendNANA
22:00 -1.7 -7.3 66 LegendMM 13 3   101.96   -3 LegendNANA
23:00 -1.7 -8.5 60 LegendMM 10 6   101.92   -4 LegendNANA

Notes on Data Quality.

Legend

  • E = Estimated
  • M = Missing
  • NA = Not Available*
  • [empty] = Indicates an unobserved value
Date modified: